Regional Weather Roundup
Issued by NWS

Home | Current Version | Previous Version | Graphics & Text | Print | Product List | Glossary Off
Versions: 1 2 3 4 5 6 7 8 9 10 11 12 13 14 15 16 17 18 19 20 21 22 23 24 25 26 27 28 29 30 31 32 33 34 35 36 37 38 39 40 41 42 43 44 45 46 47 48 49 50

000
ASUS43 KMKX 280500
RWRWI

WISCONSIN REGIONAL WEATHER ROUNDUP
NATIONAL WEATHER SERVICE MILWAUKEE/SULLIVAN WI
1100 PM CST THU NOV 27 2014

NOTE: "FAIR" INDICATES FEW OR NO CLOUDS BELOW 12,000 FEET WITH NO
SIGNIFICANT WEATHER AND/OR OBSTRUCTIONS TO VISIBILITY.

WIZ001-002-006>008-014>016-023>028-280600-
NORTHWEST WISCONSIN

CITY           SKY/WX    TMP DP  RH WIND       PRES   REMARKS
SUPERIOR ARPT  MOCLDY     6  -2  69 SW3       30.30F
ASHLAND        PTCLDY     1  -3  83 CALM      30.31F
HAYWARD        MOCLDY     1  -3  83 CALM      30.28F
SIREN          MOCLDY     7  -1  69 S5        30.30S WCI  -2
CUMBERLAND     CLOUDY     7   0  72 S7        30.28S WCI  -5
RICE LAKE      CLOUDY     6  -2  70 S3        30.31S
CHETEK         CLOUDY     6  -1  74 CALM      30.31S
LADYSMITH      MOCLDY     4  -2  79 CALM      30.31R
EAU CLAIRE     NOT AVBL
MENOMONIE      CLOUDY    10   0  64 SE3       30.33S
NEW RICHMOND   CLOUDY     9   1  69 S6        30.30F WCI  -1
OSCEOLA        CLOUDY    10   1  68 S6        30.33F WCI   0
$$

WIZ003>005-009-010-017-018-280600-
NORTH CENTRAL WISCONSIN

CITY           SKY/WX    TMP DP  RH WIND       PRES   REMARKS
MANITOWISH WTR PTCLDY   -12 -17  80 CALM      30.23F
ARBOR VITAE    PTCLDY    -4  -8  82 CALM      30.23F
WOODRUFF       PTCLDY    -4  -8  82 CALM      30.23F
RHINELANDER    PTCLDY    -8 -12  83 CALM      30.24F
EAGLE RIVER    FAIR      -7 -13  76 CALM      30.23F
LAND O LAKES   PTCLDY   -12 -17  77 CALM      30.24F
PHILLIPS       MOCLDY    -6  -9  84 CALM      30.25F
TOMAHAWK       PTCLDY   -11 -15  80 CALM      30.27S
MEDFORD        PTCLDY     0  -4  84 CALM      30.27R
MERRILL        PTCLDY    -5  -8  84 CALM      30.28S
$$

WIZ029-030-035-036-043>047-280600-
CENTRAL WISCONSIN

CITY           SKY/WX    TMP DP  RH WIND       PRES   REMARKS
WAUSAU         PTCLDY     1  -3  83 CALM      30.29S
MOSINEE        PTCLDY     1   0  92 CALM      30.29F
MARSHFIELD     MOCLDY     3  -2  79 CALM      30.30S
STEVENS POINT  PTCLDY    -5  -8  86 CALM      30.32F
WAUPACA        CLEAR      1  -4  79 CALM      30.35F
WAUTOMA        NOT AVBL
WISC RAPIDS    PTCLDY     2  -3  80 CALM      30.34F
CAMP DOUGLAS   NOT AVBL
$$

WIZ011>013-019>022-031-037>040-048>050-280600-
NORTHEAST WISCONSIN

CITY           SKY/WX    TMP DP  RH WIND       PRES   REMARKS
ANTIGO         PTCLDY   -11 -15  84 CALM      30.27S
SHAWANO        PTCLDY     5   0  82 CALM      30.34F
OCONTO         MOCLDY    -3  -6  87 CALM      30.35F
STURGEON BAY   PTCLDY     7   1  78 CALM      30.32F
GREEN BAY      MOCLDY     2  -1  88 CALM      30.35S
MANITOWOC      NOT AVBL
APPLETON       CLEAR      1  -2  85 W9        30.34S WCI -14
CLINTONVILLE   PTCLDY     1  -2  85 CALM      30.34F
OSHKOSH        MOCLDY     6   0  76 MISG      30.35S
$$

WIZ032>034-041-042-053>061-280600-
SOUTHWEST WISCONSIN

CITY           SKY/WX    TMP DP  RH WIND       PRES   REMARKS
LA CROSSE      CLOUDY    12   3  67 SE5       30.34F WCI   4
SPARTA         MOCLDY     8   3  82 CALM      30.34F
VIROQUA        CLOUDY     9   2  74 SE5       30.28F WCI   0
BOSCOBEL       CLOUDY    13   4  67 CALM      30.37S
PRAIRIE DU CHI CLOUDY    13   3  65 CALM      30.37R
PLATTEVILLE    CLOUDY    12   4  70 CALM      30.33F
$$

WIZ056-057-062-063-064-067-068-280600-
SOUTH CENTRAL WISCONSIN

CITY           SKY/WX    TMP DP  RH WIND       PRES   REMARKS
REEDSBURG      PTCLDY     6   3  86 CALM      30.34F
BARABOO/DELLS  PTCLDY     8   5  87 CALM      30.34F
LONE ROCK      NOT AVBL
MINERAL POINT  CLOUDY    12   5  73 E3        30.31F
MADISON        CLOUDY    11   6  81 CALM      30.35F
MIDDLETON      MOCLDY    12   6  76 CALM      30.35F
WATERTOWN      MOCLDY     8   6  91 CALM      30.36F
MONROE         MOCLDY    12   9  85 CALM      30.33F
JANESVILLE     MOCLDY    12   9  85 CALM      30.37F
$$

WIZ051-052-058>065-066-070>072-280600-
SOUTHEAST WISCONSIN

CITY           SKY/WX    TMP DP  RH WIND       PRES   REMARKS
MILWAUKEE      MOCLDY    14   7  73 W5        30.38S WCI   6
WAUKESHA       MOCLDY    10   7  85 W3        30.38R
MILWAUKEE/TIMM PTCLDY    10   7  85 CALM      30.39R
RACINE         PTCLDY    12   6  77 W5        30.40S WCI   4
BURLINGTON     PTCLDY     6   4  91 SW3       30.38S
KENOSHA        PTCLDY     9   6  88 W3        30.38F
FOND DU LAC    MOCLDY     2  -3  80 S3        30.36S
SHEBOYGAN      PTCLDY     3  -1  83 W3        30.35F
WEST BEND      PTCLDY     5   3  92 CALM      30.36R
JUNEAU         MOCLDY     5   2  88 CALM      30.37S
$$

LSZ147-162-280600-
LAKE SUPERIOR

STATION/POSITION TIME  TEMP    WIND        PRES    WAVE
                       AIR SEA DIR/SP/G            HT/PER
                 (UTC) (F)     (DEG/KT/KT) (MB)    (FT/S)
DEVILS ISLAND    0400   13     230/  9/ 13 1027.5F
PORT WING        0400    4     150/  3/  4 1026.8F
SAXON HARBOR     0400   -1     200/  3/ 15 1026.8F
$$

LMZ867-665-643>646-280600-
LAKE MICHIGAN

STATION/POSITION TIME  TEMP    WIND        PRES    WAVE
                       AIR SEA DIR/SP/G            HT/PER
                 (UTC) (F)     (DEG/KT/KT) (MB)    (FT/S)
CHAMBERS ISLAND  0400   15     320/  8/ 12 1027.4F
N MID LAKE BUOY  0350   19 42  310/ 10/ 14 1027.9F   2/ 4
NORTHPORT PIER   0413   17     330/  8/ 14 1027.1F
SISTER BAY       0328          320/ 15/ 18   N/A
KEWAUNEE LAKESHO 0400    7     300/  5/  6 1026.6F
SHEBOYGAN LAKESH 0400   12 34  280/  9/ 10 1029.6F
PORT WASHINGTON  0440   11     280/  6/  9 1029.5F
MILWAUKEE LAKESH 0400   15     310/  5/  6   N/A
S MID LAKE BUOY  0350   23 42  300/  8/ 12 1029.6R   4/ 6
KENOSHA   LAKESH 0400   15     310/  5/  7 1028.8F
$$

TC  - TEMPERATURE IN CELSIUS
VSB - VISIBILITY IN STATUTE MILES
WCI - WIND CHILL INDEX
HX  - HEAT INDEX



USA.gov is the U.S. government's official web portal to all federal, state and local government web resources and services.